Preview of NWS' New Version of Forecast
This preview is not operational and should not be used for support decisions.

Regional Weather Roundup (RWR)

Issued by National Weather Service (NWS)

                            
000
ASUS43 KLSX 200707
RWRMO 

WEATHER SUMMARY FOR MISSOURI
NATIONAL WEATHER SERVICE SPRINGFIELD MO
200 AM CDT SAT APR 20 2019

NOTE: "FAIR" INDICATES FEW OR NO CLOUDS BELOW 12,000 FEET WITH NO
       SIGNIFICANT WEATHER AND/OR OBSTRUCTIONS TO VISIBILITY.
       CURRENT SKY AND/OR WEATHER CONDITIONS ARE NOT AVAILABLE FOR
       CHILLICOTHE AND FARMINGTON.

MOZ001>031-035>038-043-044-053-054-200800-
...NORTHERN AND WESTERN MISSOURI...
  
CITY           SKY/WX    TMP DP  RH WIND       PRES   REMARKS
KANSAS CTY INT CLEAR     51  31  46 CALM      29.97F                  
KANSAS C DTWN  CLEAR     47  39  74 CALM      29.97F                  
LEE'S SUMMIT   CLEAR     49  31  49 CALM      29.98S                  
ST JOSEPH      CLEAR     39  35  86 SE3       29.97F                  
CHILLICOTHE      N/A     39  32  76 CALM      29.97F                  
KIRKSVILLE     CLEAR     44  29  55 N7        29.94F                  
     
$$
MOZ066>068-077>081-088>096-101>105-200800-
...SOUTHWEST MISSOURI...
  
CITY           SKY/WX    TMP DP  RH WIND       PRES   REMARKS
SPRINGFIELD    CLEAR     44  32  62 NW5       29.95S                  
JOPLIN         CLEAR     44  36  73 CALM      29.99F                  
BRANSON        PTCLDY    46  32  57 CALM      29.96F                  
               
$$
MOZ032>034-039>042-045>050-055>058-069>072-200800-
...CENTRAL MISSOURI...  
  
CITY           SKY/WX    TMP DP  RH WIND       PRES   REMARKS
COLUMBIA       CLEAR     44  30  57 NW8       29.92F                  
JEFFERSON CITY CLEAR     44  33  65 NW3       29.93S                  
ROLLA          CLEAR     45  28  51 NW8       29.90S                  
SEDALIA        CLEAR     43  34  70 NW6       29.96S                  
WHITEMAN AFB   CLEAR     46  33  60 W3        29.92S                  
WARRENSBURG    CLEAR     45  32  61 W5        29.97S                  
OSAGE BEACH    CLEAR     48  30  49 NW5       29.94S                  
               
$$
MOZ051-052-059>065-200800-
...EAST CENTRAL MISSOURI...
  
CITY           SKY/WX    TMP DP  RH WIND       PRES   REMARKS
ST LOUIS INTL  CLEAR     47  25  42 NW10      29.84F                  
SPIRIT OF STL  CLEAR     46  29  51 NW7       29.85F                  
ST CHARLES     CLEAR     48  26  42 NW12      29.84F                  
                   
$$
MOZ072>076-082>087-097>100-106>115-200800-
...SOUTH CENTRAL AND SOUTHEAST MISSOURI...
  
CITY           SKY/WX    TMP DP  RH WIND       PRES   REMARKS
CAPE GIRARDEAU FAIR      47  30  51 N14G23    29.76S                  
FARMINGTON     CLEAR     45  28  51 NW8       29.82S                  
POPLAR BLUFF   FAIR      45  32  60 NW6       29.80R                  
WEST PLAINS    CLEAR     45  29  53 NW8       29.90S                  
                                       
$$